This demonstration page uses our WeatherBlox Daily Observations layout. Learn more.

Left ArrowRight Arrow

39.51506, -84.39828

Hourly Observations for March 8, 2018

Temp ( °F °C ) Dew Point ( °F °C ) Humidity (%) Winds ( mph kmh ) Pressure ( in mb ) Visibility ( mi km ) Precip ( " mm )
12:15 am 00:15 Cloudy 30 -1.3 22 -5.6 73 73 W 6 9 30.03 1017 10 16.0934 N/A
12:35 am 00:35 Partly Cloudy 28 -2 22 -5.5 77 77 WSW 6 9 30.03 1017 10 16.0934 N/A
12:55 am 00:55 Clear 28 -2.4 22 -5.4 80 80 WSW 6 9 30.03 1017 10 16.0934 N/A
1:15 am 01:15 Mostly Cloudy 29 -1.9 23 -4.9 80 80 WSW 6 9 30 1016 10 16.0934 N/A
1:35 am 01:35 Cloudy 29 -1.4 24 -4.4 80 80 WSW 7 11 30 1016 10 16.0934 N/A
1:55 am 01:55 Cloudy 30 -1.3 25 -4 82 82 WSW 8 13 30 1016 10 16.0934 N/A
2:15 am 02:15 Cloudy with Light Snow 30 -1.2 26 -3.4 85 85 WSW 8 13 30 1016 7 11.26538 N/A
2:35 am 02:35 Cloudy with Light Snow 30 -1.2 26 -3.2 86 86 WSW 7 11 29.97 1015 7 11.26538 N/A
2:55 am 02:55 Cloudy with Light Snow 30 -1.1 26 -3.2 86 86 WSW 8 13 29.97 1015 7 11.26538 N/A
3:15 am 03:15 Cloudy with Light Snow 28 -2.4 24 -4.5 86 86 WNW 7 11 29.97 1015 3 4.82802 N/A
3:35 am 03:35 Cloudy 28 -2.4 24 -4.6 85 85 WNW 6 9 29.97 1015 10 16.0934 N/A
3:55 am 03:55 Cloudy 28 -2.3 23 -5.1 81 81 WNW 7 11 29.97 1015 10 16.0934 N/A
4:15 am 04:15 Cloudy 28 -2.2 22 -5.3 80 80 WNW 8 13 29.97 1015 10 16.0934 N/A
4:35 am 04:35 Cloudy 28 -2.3 22 -5.3 80 80 W 6 9 29.97 1015 10 16.0934 N/A
4:55 am 04:55 Cloudy 28 -2.5 23 -5.1 83 83 W 6 9 29.97 1015 10 16.0934 N/A
5:15 am 05:15 Cloudy 28 -2.2 23 -5.2 80 80 W 7 11 29.97 1015 10 16.0934 N/A
5:35 am 05:35 Cloudy 28 -2.3 22 -5.4 80 80 W 8 13 29.97 1015 10 16.0934 N/A
5:55 am 05:55 Cloudy 28 -2.3 22 -5.5 79 79 W 8 13 29.97 1015 10 16.0934 N/A
6:15 am 06:15 Cloudy 28 -2.5 22 -5.3 81 81 W 7 11 30 1016 10 16.0934 N/A
6:35 am 06:35 Cloudy 28 -2.5 23 -5.1 83 83 W 6 9 30 1016 10 16.0934 N/A
6:55 am 06:55 Cloudy 28 -2.3 23 -5.1 81 81 W 6 9 30 1016 10 16.0934 N/A
7:15 am 07:15 Cloudy 28 -2.2 20 -6.6 72 72 WNW 9 15 30 1016 10 16.0934 N/A
7:35 am 07:35 Partly Cloudy 27 -2.7 20 -6.9 73 73 WNW 9 15 30 1016 10 16.0934 N/A
7:55 am 07:55 Sunny 28 -2.4 20 -6.6 73 73 NW 8 13 30 1016 10 16.0934 N/A
8:15 am 08:15 Sunny 28 -2.4 19 -7.4 69 69 WNW 12 19 30.03 1017 10 16.0934 N/A
8:35 am 08:35 Partly Cloudy 28 -2.4 19 -7.4 69 69 WNW 13 20 30.03 1017 10 16.0934 N/A
8:55 am 08:55 Partly Cloudy 28 -2.1 19 -7.4 67 67 NNW 7 11 30.03 1017 10 16.0934 N/A
9:15 am 09:15 Cloudy 28 -2.3 17 -8.1 65 65 NNW 10 17 30.03 1017 10 16.0934 N/A
9:35 am 09:35 Cloudy 29 -1.8 18 -7.6 65 65 WNW 13 20 30.03 1017 10 16.0934 N/A
9:55 am 09:55 Cloudy 29 -1.8 19 -7.2 67 67 WNW 14 22 30.03 1017 10 16.0934 N/A
10:15 am 10:15 Cloudy with Light Snow 29 -1.6 20 -6.8 68 68 WNW 15 24 30.03 1017 10 16.0934 N/A
10:35 am 10:35 Cloudy with Light Snow 29 -1.6 21 -6.1 72 72 WNW 10 17 30.03 1017 10 16.0934 N/A
10:55 am 10:55 Mostly Cloudy 31 -0.8 20 -6.5 66 66 WNW 17 28 30.03 1017 10 16.0934 N/A
11:15 am 11:15 Mostly Cloudy 31 -0.4 19 -7.1 61 61 NW 12 19 30.03 1017 10 16.0934 N/A
11:35 am 11:35 Cloudy with Light Snow 29 -1.7 17 -8.6 60 60 NW 15 24 30.03 1017 10 16.0934 N/A
11:55 am 11:55 Mostly Cloudy 31 -0.7 18 -7.8 59 59 WNW 14 22 30.03 1017 10 16.0934 N/A
12:15 pm 12:15 Cloudy 31 -0.3 17 -8.5 54 54 W 14 22 30.03 1017 10 16.0934 N/A
12:35 pm 12:35 Mostly Cloudy 31 -0.5 14 -10.2 48 48 WNW 21 33 30.03 1017 10 16.0934 N/A
12:55 pm 12:55 Mostly Cloudy 33 0.5 13 -10.3 45 45 NW 12 19 30.03 1017 10 16.0934 N/A
1:15 pm 13:15 Cloudy 34 1.1 15 -9.7 45 45 NW 14 22 30.03 1017 10 16.0934 N/A
1:35 pm 13:35 Cloudy 34 0.9 14 -9.8 45 45 WNW 13 20 30.03 1017 10 16.0934 N/A
1:55 pm 13:55 Cloudy 32 undefined 15 -9.3 50 50 W 16 26 30.03 1017 10 16.0934 N/A
2:15 pm 14:15 Cloudy 32 -0.2 14 -9.9 48 48 WNW 12 19 30.03 1017 10 16.0934 N/A
2:35 pm 14:35 Cloudy 31 -0.4 15 -9.6 50 50 WNW 14 22 30.03 1017 10 16.0934 N/A
2:55 pm 14:55 Cloudy 30 -0.9 16 -8.9 55 55 WNW 17 28 30.03 1017 10 16.0934 N/A
3:15 pm 15:15 Cloudy 31 -0.7 16 -9 54 54 WNW 18 30 30.03 1017 10 16.0934 N/A
3:35 pm 15:35 Cloudy 31 -0.6 15 -9.7 51 51 WNW 15 24 30.03 1017 10 16.0934 N/A
3:55 pm 15:55 Cloudy 31 -0.7 14 -9.8 51 51 WNW 15 24 30.03 1017 10 16.0934 N/A
4:15 pm 16:15 Cloudy 31 -0.5 14 -9.9 49 49 W 14 22 30.06 1018 10 16.0934 N/A
4:35 pm 16:35 Cloudy 31 -0.8 16 -8.9 55 55 W 13 20 30.06 1018 10 16.0934 N/A
4:55 pm 16:55 Cloudy 30 -0.9 17 -8.4 57 57 W 10 17 30.06 1018 10 16.0934 N/A
5:15 pm 17:15 Cloudy 30 -1.2 17 -8.2 59 59 W 14 22 30.06 1018 10 16.0934 N/A
5:35 pm 17:35 Cloudy 30 -1.2 17 -8.1 60 60 W 13 20 30.06 1018 10 16.0934 N/A
5:55 pm 17:55 Cloudy 30 -1.3 18 -7.9 61 61 W 15 24 30.06 1018 10 16.0934 N/A
6:15 pm 18:15 Cloudy 29 -1.4 18 -7.8 62 62 W 15 24 30.06 1018 10 16.0934 N/A
6:35 pm 18:35 Cloudy 29 -1.4 18 -7.8 62 62 W 14 22 30.06 1018 10 16.0934 N/A
6:55 pm 18:55 Cloudy 29 -1.4 18 -7.9 62 62 W 12 19 30.09 1019 10 16.0934 N/A
7:15 pm 19:15 Cloudy with Light Snow 29 -1.6 18 -7.6 64 64 W 13 20 30.09 1019 10 16.0934 N/A
7:35 pm 19:35 Cloudy 29 -1.6 19 -7.5 64 64 W 10 17 30.09 1019 10 16.0934 N/A
7:55 pm 19:55 Cloudy with Light Snow 29 -1.6 18 -7.6 64 64 WNW 8 13 30.09 1019 10 16.0934 N/A
8:15 pm 20:15 Cloudy 29 -1.7 19 -7.5 65 65 WNW 8 13 30.09 1019 10 16.0934 N/A
8:35 pm 20:35 Cloudy 29 -1.7 18 -7.6 64 64 W 8 13 30.09 1019 10 16.0934 N/A
8:55 pm 20:55 Cloudy 29 -1.7 18 -7.6 64 64 W 13 20 30.09 1019 10 16.0934 N/A
9:15 pm 21:15 Cloudy 29 -1.8 18 -7.6 65 65 W 10 17 30.09 1019 10 16.0934 N/A
9:35 pm 21:35 Cloudy 29 -1.8 19 -7.5 65 65 W 13 20 30.09 1019 10 16.0934 N/A
9:55 pm 21:55 Cloudy 28 -2 19 -7 69 69 W 10 17 30.09 1019 10 16.0934 N/A
10:15 pm 22:15 Cloudy 29 -1.8 19 -7.2 67 67 W 7 11 30.09 1019 10 16.0934 N/A
10:35 pm 22:35 Cloudy 29 -1.8 19 -7.4 66 66 W 10 17 30.09 1019 10 16.0934 N/A
10:55 pm 22:55 Cloudy 29 -1.9 19 -7.3 67 67 W 9 15 30.09 1019 10 16.0934 N/A
11:15 pm 23:15 Cloudy 29 -1.9 19 -7.4 66 66 W 9 15 30.09 1019 10 16.0934 N/A
11:35 pm 23:35 Cloudy 29 -1.8 19 -7.3 66 66 W 6 9 30.09 1019 10 16.0934 N/A
11:55 pm 23:55 Cloudy 29 -1.9 19 -7.3 67 67 W 8 13 30.09 1019 10 16.0934 N/A

Powered by AerisWeather